Miscellaneous Local Product
Issued by NWS Hastings, NE

Home | Current Version | Previous Version | Text Only | Print | Product List | Glossary On
Versions: 1 2 3 4 5 6 7 8 9 10 11 12 13 14 15 16 17 18 19 20 21 22 23 24 25 26 27 28 29 30 31 32 33 34 35 36 37 38 39 40 41 42 43 44 45 46 47 48 49 50
000
AXUS43 KGID 290402
MISGRI

GID CWA HOURLY WEATHER ROUNDUP
NATIONAL WEATHER SERVICE HASTINGS NE
1100 PM CDT SUN AUG 28 2016

NOTE: "FAIR" INDICATES FEW OR NO CLOUDS BELOW 12,000 FEET WITH NO
SIGNIFICANT WEATHER AND/OR OBSTRUCTIONS TO VISIBILITY.

...SOUTH CENTRAL NEBRASKA...

CITY           SKY/WX    TMP DP  RH WIND       PRES   REMARKS
GRAND ISLAND   MOCLDY    72  67  84 S12       30.13R
HASTINGS       LGT RAIN  72  68  87 SE10      30.15R
KEARNEY        PTCLDY    72  66  83 S3        30.11R
ORD            CLEAR     71  65  81 S6        30.10S
YORK           MOCLDY    72  66  83 S10       30.13S
AURORA         PTCLDY    72  68  89 S9        30.13S
LEXINGTON      CLEAR     70  64  80 S5        30.13R
HOLDREGE       PTCLDY    67  63  86 CALM      30.12S
HEBRON         TSTM      68  65  92 S14       30.15R

...NEBRASKA PANHANDLE...

CITY           SKY/WX    TMP DP  RH WIND       PRES   REMARKS
CHADRON        PTCLDY    69  49  48 W3        30.08R
ALLIANCE       PTCLDY    64  56  75 SE9       30.14R
SCOTTSBLUFF    PTCLDY    65  55  70 E5        30.14R
SIDNEY         CLOUDY    64  48  56 S8        30.19R

...WESTERN AND NORTH CENTRAL NEBRASKA...

CITY           SKY/WX    TMP DP  RH WIND       PRES   REMARKS
VALENTINE      CLEAR     76  55  48 S15       30.09R
AINSWORTH      CLEAR     72  63  72 S10       30.11R
ONEILL         CLEAR     76  67  74 SE8       30.11R
BROKEN BOW     CLEAR     63  61  93 CALM      30.13R
IMPERIAL       CLEAR     66  60  81 SE3       30.15R
NORTH PLATTE   CLEAR     64  59  83 E5        30.14R
MCCOOK         PTCLDY    69  61  75 SE8       30.13R

...EASTERN NEBRASKA...

CITY           SKY/WX    TMP DP  RH WIND       PRES   REMARKS
NORFOLK        CLOUDY    71  66  84 SE7       30.12R
SO SIOUX CITY  PTCLDY    69  65  86 SE7       30.12R
TEKAMAH        PTCLDY    69  66  90 E8        30.12R
COLUMBUS       CLOUDY    72  61  68 S6        30.12F
ALBION         CLOUDY    72  67  85 SE6       30.13R
OMAHA EPPLEY   MOCLDY    72  66  81 SE8       30.12R
OFFUTT AFB     CLOUDY    70  69  97 E5        30.11R
MILLARD        CLOUDY    71  66  84 SE5       30.11R
LINCOLN        CLOUDY    73  65  75 S7        30.13R
NEBRASKA CITY  MOCLDY    69  69 100 S3        30.14R
BEATRICE       RAIN      70  68  93 S6        30.16R
FALLS CITY     CLOUDY    71  68  90 SE7       30.13R

...NORTHERN KANSAS...

CITY           SKY/WX    TMP DP  RH WIND       PRES   REMARKS
GOODLAND       PTCLDY    67  61  81 S7        30.16R
HILL CITY      PTCLDY    72  64  76 S6        30.14R
NORTON         PTCLDY    73  61  64 SE7       30.12
SMITH CENTER   CLEAR     72  66  83 S6        30.13R
BELOIT         PTCLDY    72  68  88 E7        30.12R
HAYS           CLOUDY    70  57  64 S3        30.13R
RUSSELL        PTCLDY    69  66  90 S5        30.12R
CONCORDIA      CLOUDY    71  67  87 E10       30.15R
SALINA         CLOUDY    77  69  76 E3        30.12R
TOPEKA         CLOUDY    77  71  82 E14       30.14R



USA.gov is the U.S. government's official web portal to all federal, state and local government web resources and services.